Black Gold Race - OPEN LOFT/TRAP TRAINING

Station: Waller Tx - T Race

Distance: 1 Miles

Release: 22-Jun-2022 10:00

Weather Release:    Arrival:

Wind at Release:     Wind at Arrival:

Temp at Release: °    Temp at Arrival: °

Lofts: 328

Birds: 1730

Clocked: 1705

Good Luck to Everyone!
Drops Pos Breeder Pigeon Name Color Sex Ent Arrival Speed To Win Elg Pd400
1 Rocky Mountain Racing - UT 22025-AU22-RMR BBSP H 1 10:02:32.53 692.323 00:00:00 Yes
2 Highland Loft - NY 2343-AU22-ARPU BC C 1 10:02:44.45 642.140 00:00:12 Yes
3 Salsloft.Com & Sons - UT 0227-IF22-SALS BBWF 1 1 10:02:48.43 626.967 00:00:16 Yes
4 Chai Suen Siu - NY 0858-IF22-SLI BB C 1 10:02:54.35 605.678 00:00:22 Yes
5 Ron Talbot /Jimmy Fernandez - LA 4051-AU22-BAYO BB C 1 10:02:56.12 599.591 00:00:24 Yes
6 Scrub Family Loft - MN 0397-AU22-UNIT DC C 1 10:03:02.42 578.884 00:00:30 Yes
7 YENDEZ LOFT - TX 10440-AU22-AA BB H 1 10:03:08.56 560.034 00:00:36 Yes
8 D-Kutac Loft - TX 9713-AU22-AA BB H 1 10:03:11.17 552.388 00:00:39 Yes
9 FreebyrdTapia Syndicate - NM 12829-AU22-AA 536 X 36266 DCWF H 1 10:03:14.61 542.624 00:00:42 Yes
10 Royal Heir Loft - UT 10323-AU22-AA BC C 1 10:03:16.46 537.514 00:00:44 Yes
11 Chen & Liu Family Loft - CT 21147-AU22-ARPU BB H 1 10:03:17.22 535.443 00:00:45 Yes
12 Jpl Loft - TX 28897-AU22-JEDD BB H 1 10:03:18.36 532.365 00:00:46 Yes
13 Ramirez Loft - TX 0039-MX22-RAMI DC C 1 10:03:18.71 531.428 00:00:46 Yes
14 Grace L Loft - FL 9129-AU22-AA Gingerbread SLAT C 1 10:03:19.53 529.244 00:00:47 Yes
15 The 18 Loft & Epg Loft - FL 54421-AU22-ARPU BB C 1 10:03:23.25 519.557 00:00:51 Yes
16 Cubas Lofts - FL 5776-AU22-AA BB C 1 10:03:25.88 512.920 00:00:53 Yes
17 Pleasant Task Farm - PA 0101-AU22-PTF BC H 1 10:03:33.44 494.753 00:01:01 Yes
18 Portland Loft - OR 4129-AU22-PNW BBWF C 1 10:03:36.87 486.928 00:01:04 Yes
19 PNWC - ID 2155-AU22-PNWC “PAIR 14” BB C 1 10:03:37.85 484.737 00:01:05 Yes
20 A-Lo-Loft - NY 0081-AU22-ALOL ☯️☯️☯️☯️ BB C 1 10:03:38.69 482.875 00:01:06 Yes
21 Texstar Loft - TX 2234-AU22-TXST BB C 1 10:03:39.73 480.590 00:01:07 Yes
22 Fomento Loft - TX 4400-AU22-JEDD 🛑🛑🛑🛑 DCWF C 1 10:03:50.89 457.361 00:01:18 Yes
23 Pleasant Task Farm - PA 0119-AU22-PTF BB C 2 10:03:51.77 455.624 00:01:19 Yes
24 Kim Wong - VT 14202-AU22-ARPU BC C 1 10:03:54.02 451.243 00:01:21 Yes
25 Hans Family Loft - CA 1003-AU22-AUB BBPD H 1 10:03:54.64 450.051 00:01:22 Yes
26 Marlee Doms - IN 0043-AU22-MOJO BB C 1 10:03:58.71 442.378 00:01:26 Yes
27 Bandit Loft - TX 0017-AU22-BAND BB C 1 10:03:59.49 440.937 00:01:27 Yes
28 Texstar Loft - TX 2232-AU22-TXST BBWF H 2 10:04:02.13 436.129 00:01:30 Yes
29 Elton Dinga - TX 23118-AU22-AA Klaas 404 BB H 1 10:04:02.41 435.626 00:01:30 Yes
30 Cubas Lofts - FL 5773-AU22-AA BC H 2 10:04:07.82 426.116 00:01:35 Yes
31 Vazquez 23 Loft - TX 4634-AU22-JEDD SILV C 1 10:04:09.92 422.535 00:01:37 Yes
32 C F L - LA 2028-AU22-CFL BB C 1 10:04:11.37 420.098 00:01:39 Yes
33 Rampage Racing - TX 17907-AU22-AA DC C 1 10:04:12.95 417.474 00:01:40 Yes
34 Kin Yung & William Yung Loft - TX 2220-AU22-KHY BBWF C 1 10:04:13.49 416.584 00:01:41 Yes
35 Pol Loft - IL 0032-AU22-POLL BC H 1 10:04:14.73 414.557 00:01:42 Yes
36 Bizblood - CA 0016-AU22-BIZB BB H 1 10:04:15.78 412.855 00:01:43 Yes
37 The Rios Family Loft - NC 0074-AU22-ANGE 6135X56 DCWF H 1 10:04:17.49 410.113 00:01:45 Yes
38 Torralba/Pino Loft - NJ 0056-AU22-TORR BB C 1 10:04:18.62 408.321 00:01:46 Yes
39 Santiago Ortiz Loft - FL 39698-AU22-ARPU BBPD H 1 10:04:21.17 404.334 00:01:49 Yes
40 A H C Loft - FL 0969-IF22-JRC BB H 1 10:04:26.10 396.843 00:01:54 Yes
41 Freddie Majors - TX 3630-AU22-TEXA Everlee BC H 1 10:04:27.76 394.383 00:01:55 Yes
42 John V Partridge - CA 1049-AU22-PASO Jelle Belly BB H 1 10:04:27.92 394.148 00:01:55 Yes
43 FreebyrdTapia Syndicate - NM 12815-AU22-AA 4345 X 19891 GRIZ C 2 10:04:30.76 390.013 00:01:58 Yes
44 385 Connection - SC 2123-AU22-SCO 10291/10059 BBWF C 1 10:04:31.91 388.364 00:01:59 Yes
45 Rampage Racing - TX 17909-AU22-AA BB C 2 10:04:32.34 387.751 00:02:00 Yes
46 Ramirez Loft - TX 99193-MX22-FMC BBWF 1 2 10:04:37.34 380.760 00:02:05 Yes
47 D D Loft - NV 14003-AU22-JEDD BBWF C 1 10:04:37.53 380.499 00:02:05 Yes
48 Arandas Loft - TX 4573-AU22-VITA BC H 1 10:04:47.94 366.743 00:02:15 Yes
49 Mullins Family Loft - CA 41239-AU22-JEDD BBWF C 1 10:04:51.83 361.855 00:02:19 Yes
50 Aaron Loft - FL 65033-AU22-ARPU BB C 1 10:04:52.04 361.594 00:02:20 Yes
51 Liab Family Loft - MN 0951-AU22-LIAB Party Like A RockStar! DC C 1 10:04:55.89 356.889 00:02:23 Yes
52 Aaron Loft - FL 65012-AU22-ARPU CHOC C 2 10:04:57.94 354.434 00:02:25 Yes
53 Shdong Loft - TX 2028-AU22-SHDO BB C 1 10:04:58.78 353.437 00:02:26 Yes
54 Xiao Loft - WI 1771-AU22-RAC BB C 1 10:05:01.02 350.807 00:02:28 Yes
55 Tamayo Loft - SC 15975-AU22-JEDD BB H 1 10:05:08.36 342.457 00:02:36 Yes
56 Tarascos Family Loft - TX 4129-AU22-JEDD BBWF C 1 10:05:08.70 342.080 00:02:36 Yes
57 Highland Loft - NY 2345-AU22-ARPU BB H 2 10:05:10.52 340.075 00:02:38 Yes
58 Da-Dong - WI 22905-AU22-DA BB H 1 10:05:11.45 339.059 00:02:39 Yes
59 Furlano & Rotiroti - ON 11005-CU22-CRPU Lake4765 x Verschoot BCWF C 1 10:05:12.11 338.342 00:02:40 Yes
60 Mullins Family Loft - CA 41225-AU22-JEDD PWF C 2 10:05:13.60 336.735 00:02:41 Yes
61 W T J Loft - TX 0319-AU22-WTJL 319-WTJ 💰💰🥇 BC C 1 10:05:14.45 335.824 00:02:42 Yes
62 Big Andy/Greek Connection - SC 0133-AU22-GREE SILV C 1 10:05:21.93 328.022 00:02:49 Yes
63 Fan Family Loft - NS 5049-CU22-CRPU BBWF C 1 10:05:22.07 327.879 00:02:50 Yes
64 Racing Pigeon Mall - WA 0214-AU22-RPM BB C 1 10:05:23.48 326.450 00:02:51 Yes
65 Roby Family Loft - FL 0538-AU22-ROBY Raptor 6611-105 BB C 1 10:05:23.62 326.309 00:02:51 Yes
66 Julietta Family Loft - FL 0076-AU22-JUFL BB C 1 10:05:25.43 324.494 00:02:53 Yes
67 Bandit Loft - TX 0024-AU22-BAND BBWF C 2 10:05:33.77 316.386 00:03:01 Yes
68 Cloux Loft - CO 0013-AU22-CLOU BB H 1 10:05:34.20 315.978 00:03:02 Yes
69 Florida Pigeon Derby - FL 0070-AU22-FURI BBPD C 1 10:05:35.00 315.224 00:03:02 Yes
70 Guevaras Loft - TX 10493-AU22-AA BBWF C 1 10:05:35.94 314.342 00:03:03 Yes
71 Do Drop In Loft - NC 0031-AU22-TRC BB C 1 10:05:42.56 308.267 00:03:10 Yes
72 Linda Loft - PA 0848-IF22-LU DCWF H 1 10:05:43.86 307.102 00:03:11 Yes
73 J Family Loft - PA 21555-AU22-FOYS BB H 1 10:05:45.99 305.211 00:03:13 Yes
74 Furia Loft - FL 0022-AU22-FURI BB H 1 10:05:47.55 303.841 00:03:15 Yes
75 Dong Family Loft - NY 0855-IF22-MH 🚀🚀典杯🚀🚀 BB C 1 10:05:49.03 302.553 00:03:16 Yes
76 Elton Dinga - TX 23138-AU22-AA 3rd Champion Big Andy BB C 2 10:05:52.97 299.176 00:03:20 Yes
77 Sierra Ranch - CA 1004-AU22-SIER BC C 1 10:05:54.30 298.052 00:03:22 Yes
78 Midwest and Skylab - MN 0367-AU22-MIDW 🐦 🐦 🐦 🐦 BB H 1 10:05:55.22 297.281 00:03:23 Yes
79 SoFly Loft - NC 0810-AU22-TRC Mcf & Impluse BB C 1 10:05:59.35 293.864 00:03:27 Yes
80 Chai Suen Siu - NY 0868-IF22-SLI BB C 2 10:06:02.97 290.933 00:03:30 Yes
81 Santiago Ortiz Loft - FL 36758-AU22-ARPU BBWF H 2 10:06:04.23 289.927 00:03:32 Yes
82 EPPS-WI920-Racing - WI 0008-AU22-EPPS BB C 1 10:06:04.91 289.386 00:03:32 Yes
83 Perez Family Loft - MN 0315-AU22-PFL BBWF C 1 10:06:06.88 287.833 00:03:34 Yes
84 H & H Team - TX 0029-AU22-LAFL BB C 1 10:06:11.92 283.932 00:03:39 Yes
85 Maestas Family Loft - NM 22929-AU22-NMRP BBWF C 1 10:06:13.89 282.436 00:03:41 Yes
86 America's Dream Loft - IL 0307-AU22-ADL DC C 1 10:06:14.03 282.330 00:03:42 Yes
87 G T Family Loft - NM 0575-AU22-GT BB C 1 10:06:14.46 282.006 00:03:42 Yes
88 Jorge Torres Loft - NC 0744-AU22-TRC BB C 1 10:06:16.32 280.612 00:03:44 Yes
89 Jennifer Rankin - TX 22183-AU22-APC BB C 1 10:06:17.44 279.780 00:03:45 Yes
90 Jpl Loft - TX 28801-AU22-JEDD BBWF C 2 10:06:20.19 277.756 00:03:48 Yes
91 Ireneo - Hewitt - CA 0443-AU22-HEWI BB C 1 10:06:23.21 275.567 00:03:51 Yes
92 Jackpot Loft - NY 7501-AU22-BISO BC C 1 10:06:25.96 273.603 00:03:53 Yes
93 Two Brothers Syndicate - TX 0520-AU22-WWC BBWF C 1 10:06:35.90 266.734 00:04:03 Yes
94 Irishsyndicatelofts - AZ 7088-AU22-IRIS DCWF C 1 10:06:37.41 265.721 00:04:05 Yes
95 EPPS-WI920-Racing - WI 0006-AU22-EPPS BCWF H 2 10:06:40.10 263.934 00:04:08 Yes
96 Arandas Loft - TX 4545-AU22-VITA BB C 2 10:06:40.82 263.460 00:04:08 Yes
97 Pleasant Task Farm - PA 0092-AU22-PTF BCWF H 3 10:06:41.48 263.027 00:04:09 Yes
98 Hv Brothers - MN 6821-AU22-VITA BB C 1 10:06:41.73 262.863 00:04:09 Yes
99 Si Se Puede Farm - TX 0024-AU22-SISE SLAT C 1 10:06:43.21 261.898 00:04:11 Yes
100 Starnes Loft - TX 2053-AU22-DALL BB C 1 10:06:43.92 261.438 00:04:11 Yes

There are 1705 bird records

Note: These Race Results are unofficial and subject to change until verified by the Race Committee and declared final.

 

Ship Birds to:

Black Gold Race attn: Yoanny

31240 Pohl Rd
Waller TX 77484

cell 832-673-5350

email: blackgoldrace@gmail.com


windy
Click for Forecast for 77484 from weatherUSA